Lid_Strength_Index
2 2 2 2 2 2 3 3 3 3 3 3 3 3 3 4 4 4 4 5 5 6
2 2 2 2 2 3 2 3 3 4 3 3 3 3 3 4 4 4 4 4 5 4
2 2 2 2 2 2 2 3 4 4 3 3 3 3 3 4 4 4 4 4 4 5
2 2 2 2 2 2 2 3 4 4 4 3 3 3 3 3 3 4 3 3 4 4
2 2 2 2 2 2 2 3 3 4 4 4 3 3 3 3 3 3 3 4 4 4
2 2 2 2 1 2 2 2 3 4 4 3 3 3 2 2 3 3 3 3 4 4
3 2 2 1 2 1 2 2 3 3 3 3 2 2 2 2 3 3 3 3 3 3
2 2 2 2 2 2 2 2 2 3 2 2 2 2 2 3 3 3 3 4 3 3
2 2 2 2 2 2 2 2 3 3 3 3 2 5 6 4 3 3 4 4 3 4
2 3 2 2 2 2 2 2 3 3 3 3 2 6 6 6 3 3 4 4 5 7
3 3 2 3 3 2 2 2 3 3 3 2 2 6 6 6 3 3 4 4 5 6
3 3 3 3 3 2 3 3 2 3 3 3 3 7 7 6 4 6 8 9 7 7
9 3 3 3 3 3 3 3 3 4 3 4 4 7 7 6 8 11 13 12 11 9
12 10 7 5 5 3 3 4 6 9 10 9 8 9 8 7 8 11 13 13 12 12